,,,PA_Meas_PMT16A,,PR_Meas_QMR101_102,,RH_Meas_QMH101,,SR_Meas_QMS101,,TA_Meas_QMH101,,GenWind,,GenWind,
date,time,status,PA,status,PR,status,RH,status,SR,status,TA,status,DirAvg,status,SpdAvg,
2011-09-04, 00:00:04,VALID,1001.13,VALID,0,VALID,83.2849,VALID,0,VALID,23.8396,VALID,99,VALID,0.159375,
2011-09-04, 00:01:04,VALID,1001.11,VALID,0,VALID,83.4604,VALID,0,VALID,23.7597,VALID,99,VALID,0,
2011-09-04, 00:02:04,VALID,1001.08,VALID,0,VALID,83.9182,VALID,0,VALID,23.742,VALID,99,VALID,0,
2011-09-04, 00:03:04,VALID,1001.08,VALID,0,VALID,84.1013,VALID,0,VALID,23.703,VALID,99,VALID,0.266797,
2011-09-04, 00:04:04,VALID,1001.05,VALID,0,VALID,84.2692,VALID,0,VALID,23.664,VALID,99,VALID,0.225391,
2011-09-04, 00:05:04,VALID,1001.06,VALID,0,VALID,84.4523,VALID,0,VALID,23.6232,VALID,99,VALID,0.151562,
2011-09-04, 00:06:04,VALID,1001.06,VALID,0,VALID,84.6888,VALID,0,VALID,23.6054,VALID,99,VALID,0.1,
2011-09-04, 00:07:04,VALID,1001.06,VALID,0,VALID,84.8414,VALID,0,VALID,23.5256,VALID,99,VALID,0,
2011-09-04, 00:08:04,VALID,1001.07,VALID,0,VALID,85.1237,VALID,0,VALID,23.4884,VALID,99,VALID,0,
2011-09-04, 00:09:04,VALID,1001.06,VALID,0,VALID,85.4517,VALID,0,VALID,23.4866,VALID,99,VALID,0,
2011-09-04, 00:10:04,VALID,1001.04,VALID,0,VALID,85.528,VALID,0,VALID,23.4866,VALID,99,VALID,0.180859,
2011-09-04, 00:11:04,VALID,1001.05,VALID,0,VALID,85.6196,VALID,0,VALID,23.4866,VALID,99,VALID,0.241797,
2011-09-04, 00:12:04,VALID,1001.01,VALID,0,VALID,85.673,VALID,0,VALID,23.5079,VALID,99,VALID,0.1625,
2011-09-04, 00:13:04,VALID,1001.03,VALID,0,VALID,85.6425,VALID,0,VALID,23.5274,VALID,99,VALID,0.334375,
2011-09-04, 00:14:04,VALID,1000.98,VALID,0,VALID,85.5662,VALID,0,VALID,23.5469,VALID,99,VALID,0.648047,
2011-09-04, 00:15:04,VALID,1001,VALID,0,VALID,85.4746,VALID,0,VALID,23.5646,VALID,99,VALID,0.603125,
2011-09-04, 00:16:04,VALID,1001,VALID,0,VALID,85.1847,VALID,0,VALID,23.5646,VALID,99,VALID,0.601563,
2011-09-04, 00:17:04,VALID,1001.04,VALID,0,VALID,85.1694,VALID,0,VALID,23.5646,VALID,100,VALID,0.826953,
2011-09-04, 00:18:04,VALID,1001.03,VALID,0,VALID,85.0245,VALID,0,VALID,23.5451,VALID,100,VALID,0.587109,
2011-09-04, 00:19:04,VALID,1001.03,VALID,0,VALID,85.3297,VALID,0,VALID,23.5061,VALID,100,VALID,0.482031,
2011-09-04, 00:20:04,VALID,1001.08,VALID,0,VALID,85.406,VALID,0,VALID,23.4866,VALID,100,VALID,0.519922,
2011-09-04, 00:21:04,VALID,1001.06,VALID,0,VALID,85.4746,VALID,0,VALID,23.4688,VALID,56,VALID,0.626172,
2011-09-04, 00:22:04,VALID,1001.05,VALID,0,VALID,85.3068,VALID,0,VALID,23.428,VALID,55,VALID,0.685156,
2011-09-04, 00:23:04,VALID,1001.04,VALID,0,VALID,85.6959,VALID,0,VALID,23.3695,VALID,55,VALID,0.467187,
2011-09-04, 00:24:04,VALID,1001.02,VALID,0,VALID,86.1918,VALID,0,VALID,23.311,VALID,55,VALID,0.209375,
2011-09-04, 00:25:04,VALID,1001.03,VALID,0,VALID,86.4512,VALID,0,VALID,23.2719,VALID,55,VALID,0.0910156,
2011-09-04, 00:26:04,VALID,1001.05,VALID,0,VALID,86.642,VALID,0,VALID,23.2542,VALID,55,VALID,0.180859,
2011-09-04, 00:27:04,VALID,1001.05,VALID,0,VALID,86.6496,VALID,0,VALID,23.1744,VALID,55,VALID,0.347656,
2011-09-04, 00:28:04,VALID,1001.05,VALID,0,VALID,86.7869,VALID,0,VALID,23.0964,VALID,55,VALID,0.592188,
2011-09-04, 00:29:04,VALID,1001.05,VALID,0,VALID,87.3973,VALID,0,VALID,23.0591,VALID,64,VALID,0.307031,
2011-09-04, 00:30:04,VALID,1001.04,VALID,0,VALID,88.0077,VALID,0,VALID,23.0378,VALID,64,VALID,0.483594,
2011-09-04, 00:31:04,VALID,1001.03,VALID,0,VALID,88.5036,VALID,0,VALID,23.0591,VALID,64,VALID,0.514063,
2011-09-04, 00:32:04,VALID,1001.04,VALID,0,VALID,88.7096,VALID,0,VALID,23.0378,VALID,64,VALID,0.680078,
2011-09-04, 00:33:04,VALID,1001.02,VALID,0,VALID,88.557,VALID,0,VALID,23.0378,VALID,64,VALID,0.492969,
2011-09-04, 00:34:04,VALID,1001.02,VALID,0,VALID,88.5723,VALID,0,VALID,23.0396,VALID,64,VALID,0.596094,
2011-09-04, 00:35:04,VALID,1000.98,VALID,0,VALID,88.8546,VALID,0,VALID,23.0183,VALID,64,VALID,0.608203,
2011-09-04, 00:36:04,VALID,1000.98,VALID,0,VALID,89.2513,VALID,0,VALID,23.0183,VALID,64,VALID,0.547266,
2011-09-04, 00:37:04,VALID,1000.98,VALID,0,VALID,89.4039,VALID,0,VALID,23.0183,VALID,64,VALID,0.492188,
2011-09-04, 00:38:04,VALID,1000.97,VALID,0,VALID,89.4878,VALID,0,VALID,23.0396,VALID,64,VALID,0.529688,
2011-09-04, 00:39:04,VALID,1000.96,VALID,0,VALID,89.5565,VALID,0.112286,VALID,22.9988,VALID,64,VALID,0.635938,
2011-09-04, 00:40:04,VALID,1000.97,VALID,0,VALID,89.3886,VALID,0.112286,VALID,22.9208,VALID,64,VALID,0.405078,
2011-09-04, 00:41:04,VALID,1000.99,VALID,0,VALID,89.3657,VALID,0.112286,VALID,22.841,VALID,64,VALID,0.40625,
2011-09-04, 00:42:04,VALID,1001.01,VALID,0,VALID,89.5794,VALID,0.112286,VALID,22.802,VALID,64,VALID,0.424219,
2011-09-04, 00:43:04,VALID,1001,VALID,0,VALID,89.8388,VALID,0.224572,VALID,22.8037,VALID,64,VALID,0.450781,
2011-09-04, 00:44:04,VALID,1000.98,VALID,0,VALID,90.0982,VALID,0.112286,VALID,22.763,VALID,35,VALID,0.513672,
2011-09-04, 00:45:04,VALID,1000.96,VALID,0,VALID,90.3347,VALID,0.112286,VALID,22.7825,VALID,35,VALID,0.45,
2011-09-04, 00:46:04,VALID,1000.95,VALID,0,VALID,90.4949,VALID,0.112286,VALID,22.7825,VALID,35,VALID,0.300391,
2011-09-04, 00:47:04,VALID,1000.95,VALID,0,VALID,90.5712,VALID,0.112286,VALID,22.7825,VALID,35,VALID,0.400391,
2011-09-04, 00:48:04,VALID,1000.96,VALID,0,VALID,90.6399,VALID,0.112286,VALID,22.802,VALID,35,VALID,0.310937,
2011-09-04, 00:49:04,VALID,1000.94,VALID,0,VALID,90.678,VALID,0.112286,VALID,22.802,VALID,35,VALID,0.217187,
2011-09-04, 00:50:04,VALID,1000.94,VALID,0,VALID,90.6857,VALID,0.112286,VALID,22.802,VALID,35,VALID,0.0664063,
2011-09-04, 00:51:04,VALID,1000.92,VALID,0,VALID,90.6704,VALID,0.112286,VALID,22.7825,VALID,35,VALID,0.223828,
2011-09-04, 00:52:04,VALID,1000.94,VALID,0,VALID,90.6704,VALID,0.112286,VALID,22.7825,VALID,35,VALID,0.0660156,
2011-09-04, 00:53:04,VALID,1000.92,VALID,0,VALID,90.6551,VALID,0.224572,VALID,22.763,VALID,35,VALID,0,
2011-09-04, 00:54:04,VALID,1000.94,VALID,0,VALID,90.6399,VALID,0,VALID,22.7452,VALID,35,VALID,0,
2011-09-04, 00:55:04,VALID,1000.94,VALID,0,VALID,90.6399,VALID,0,VALID,22.7452,VALID,35,VALID,0,
2011-09-04, 00:56:04,VALID,1000.95,VALID,0,VALID,90.5712,VALID,0,VALID,22.7062,VALID,35,VALID,0,
2011-09-04, 00:57:04,VALID,1000.95,VALID,0,VALID,90.5483,VALID,0,VALID,22.6867,VALID,35,VALID,0,
2011-09-04, 00:58:04,VALID,1000.94,VALID,0,VALID,90.5712,VALID,0,VALID,22.6477,VALID,35,VALID,0,
2011-09-04, 00:59:04,VALID,1000.94,VALID,0,VALID,90.7009,VALID,0,VALID,22.6477,VALID,35,VALID,0,
2011-09-04, 01:00:04,VALID,1000.95,VALID,0,VALID,90.8154,VALID,0,VALID,22.6282,VALID,35,VALID,0,
2011-09-04, 01:01:04,VALID,1000.94,VALID,0,VALID,90.9374,VALID,0,VALID,22.6282,VALID,35,VALID,0,
2011-09-04, 01:02:04,VALID,1000.93,VALID,0,VALID,91.0519,VALID,0,VALID,22.6477,VALID,35,VALID,0,
2011-09-04, 01:03:04,VALID,1000.94,VALID,0,VALID,91.0595,VALID,0,VALID,22.6477,VALID,35,VALID,0,
2011-09-04, 01:04:04,VALID,1000.93,VALID,0,VALID,91.0671,VALID,0,VALID,22.6689,VALID,35,VALID,0.125391,
2011-09-04, 01:05:04,VALID,1000.97,VALID,0,VALID,91.0214,VALID,0,VALID,22.6494,VALID,35,VALID,0,
2011-09-04, 01:06:04,VALID,1000.95,VALID,0,VALID,90.9451,VALID,0,VALID,22.6087,VALID,35,VALID,0,
2011-09-04, 01:07:04,VALID,1000.91,VALID,0,VALID,90.8993,VALID,0,VALID,22.6087,VALID,35,VALID,0,
2011-09-04, 01:08:04,VALID,1000.91,VALID,0,VALID,90.8535,VALID,0,VALID,22.6104,VALID,35,VALID,0,
2011-09-04, 01:09:04,VALID,1000.89,VALID,0,VALID,90.8383,VALID,0,VALID,22.5892,VALID,35,VALID,0.0824219,
2011-09-04, 01:10:04,VALID,1000.88,VALID,0,VALID,90.762,VALID,0,VALID,22.5909,VALID,35,VALID,0.215234,
2011-09-04, 01:11:04,VALID,1000.86,VALID,0,VALID,90.6094,VALID,0,VALID,22.5501,VALID,35,VALID,0.349219,
2011-09-04, 01:12:04,VALID,1000.86,VALID,0,VALID,90.35,VALID,0,VALID,22.5306,VALID,50,VALID,0.669922,
2011-09-04, 01:13:04,VALID,1000.86,VALID,0,VALID,89.9151,VALID,0,VALID,22.4916,VALID,53,VALID,0.630078,
2011-09-04, 01:14:04,VALID,1000.86,VALID,0,VALID,89.6709,VALID,0,VALID,22.5128,VALID,53,VALID,0.766797,
2011-09-04, 01:15:04,VALID,1000.84,VALID,0,VALID,89.7625,VALID,0,VALID,22.5714,VALID,113,VALID,0.732422,
2011-09-04, 01:16:04,VALID,1000.83,VALID,0,VALID,89.5641,VALID,0,VALID,22.6087,VALID,121,VALID,0.859766,
2011-09-04, 01:17:04,VALID,1000.83,VALID,0,VALID,89.0758,VALID,0,VALID,22.7062,VALID,142,VALID,0.776953,
2011-09-04, 01:18:04,VALID,1000.82,VALID,0,VALID,88.5112,VALID,0,VALID,22.7842,VALID,142,VALID,0.787891,
2011-09-04, 01:19:04,VALID,1000.79,VALID,0,VALID,87.8474,VALID,0,VALID,22.864,VALID,142,VALID,0.784375,
2011-09-04, 01:20:04,VALID,1000.77,VALID,0,VALID,87.4736,VALID,0,VALID,22.9208,VALID,142,VALID,0.750781,
2011-09-04, 01:21:04,VALID,1000.8,VALID,0,VALID,86.8251,VALID,0,VALID,22.9793,VALID,142,VALID,0.706641,
2011-09-04, 01:22:04,VALID,1000.8,VALID,0,VALID,86.0392,VALID,0,VALID,23.0183,VALID,142,VALID,0.491016,
2011-09-04, 01:23:04,VALID,1000.83,VALID,0,VALID,85.7264,VALID,0,VALID,23.0769,VALID,142,VALID,0.526172,
2011-09-04, 01:24:04,VALID,1000.83,VALID,0,VALID,85.5509,VALID,0,VALID,23.1176,VALID,142,VALID,0.435156,
2011-09-04, 01:25:04,VALID,1000.84,VALID,0,VALID,85.1389,VALID,0,VALID,23.1159,VALID,142,VALID,0.448438,
2011-09-04, 01:26:04,VALID,1000.87,VALID,0,VALID,84.7803,VALID,0,VALID,23.1566,VALID,142,VALID,0.266016,
2011-09-04, 01:27:04,VALID,1000.88,VALID,0,VALID,84.5209,VALID,0,VALID,23.1762,VALID,142,VALID,0.308203,
2011-09-04, 01:28:04,VALID,1000.9,VALID,0,VALID,84.376,VALID,0,VALID,23.1354,VALID,143,VALID,0.284766,
2011-09-04, 01:29:04,VALID,1000.94,VALID,0,VALID,84.086,VALID,0,VALID,23.1354,VALID,143,VALID,0.262891,
2011-09-04, 01:30:04,VALID,1000.92,VALID,0,VALID,84.0098,VALID,0,VALID,23.1354,VALID,143,VALID,0.101953,
2011-09-04, 01:31:04,VALID,1000.9,VALID,0,VALID,84.0937,VALID,0,VALID,23.0769,VALID,143,VALID,0.501562,
2011-09-04, 01:32:04,VALID,1000.88,VALID,0,VALID,83.9945,VALID,0,VALID,23.0183,VALID,143,VALID,0.662891,
2011-09-04, 01:33:04,VALID,1000.88,VALID,0,VALID,83.8037,VALID,0,VALID,23.0378,VALID,162,VALID,0.977734,
2011-09-04, 01:34:04,VALID,1000.86,VALID,0,VALID,83.3078,VALID,0,VALID,23.1354,VALID,162,VALID,0.820313,
2011-09-04, 01:35:04,VALID,1000.84,VALID,0,VALID,82.6898,VALID,0,VALID,23.1744,VALID,166,VALID,0.991016,
2011-09-04, 01:36:04,VALID,1000.8,VALID,0,VALID,82.2931,VALID,0,VALID,23.2719,VALID,166,VALID,0.994531,
2011-09-04, 01:37:04,VALID,1000.8,VALID,0,VALID,81.9421,VALID,0,VALID,23.311,VALID,166,VALID,0.626953,
2011-09-04, 01:38:04,VALID,1000.78,VALID,0,VALID,81.7819,VALID,0,VALID,23.3323,VALID,148,VALID,0.78125,
2011-09-04, 01:39:04,VALID,1000.8,VALID,0,VALID,81.6522,VALID,0,VALID,23.35,VALID,148,VALID,0.378906,
2011-09-04, 01:40:04,VALID,1000.82,VALID,0,VALID,81.614,VALID,0,VALID,23.3305,VALID,148,VALID,0.540625,
2011-09-04, 01:41:04,VALID,1000.8,VALID,0,VALID,81.6751,VALID,0,VALID,23.3305,VALID,148,VALID,0.44375,
2011-09-04, 01:42:04,VALID,1000.81,VALID,0,VALID,81.7361,VALID,0,VALID,23.3518,VALID,148,VALID,0.448438,
2011-09-04, 01:43:04,VALID,1000.8,VALID,0,VALID,81.6903,VALID,0,VALID,23.2915,VALID,148,VALID,0.636328,
2011-09-04, 01:44:04,VALID,1000.77,VALID,0,VALID,81.5759,VALID,0,VALID,23.2932,VALID,148,VALID,0.64375,
2011-09-04, 01:45:04,VALID,1000.76,VALID,0,VALID,81.614,VALID,0,VALID,23.2737,VALID,148,VALID,0.356641,
2011-09-04, 01:46:04,VALID,1000.69,VALID,0,VALID,81.5606,VALID,0,VALID,23.2737,VALID,148,VALID,0.382031,
2011-09-04, 01:47:04,VALID,1000.72,VALID,0,VALID,81.6446,VALID,0,VALID,23.2524,VALID,148,VALID,0.600391,
2011-09-04, 01:48:04,VALID,1000.65,VALID,0,VALID,81.6674,VALID,0,VALID,23.2542,VALID,148,VALID,0.478516,
2011-09-04, 01:49:04,VALID,1000.62,VALID,0,VALID,81.7666,VALID,0,VALID,23.2134,VALID,148,VALID,0.593359,
2011-09-04, 01:50:04,VALID,1000.63,VALID,0,VALID,81.9192,VALID,0,VALID,23.2152,VALID,148,VALID,0.671875,
2011-09-04, 01:51:04,VALID,1000.64,VALID,0,VALID,82.11,VALID,0,VALID,23.1939,VALID,148,VALID,0.723437,
2011-09-04, 01:52:04,VALID,1000.62,VALID,0,VALID,82.3083,VALID,0,VALID,23.2347,VALID,148,VALID,0.580859,
2011-09-04, 01:53:04,VALID,1000.58,VALID,0,VALID,82.5754,VALID,0,VALID,23.1939,VALID,148,VALID,0.585938,
2011-09-04, 01:54:04,VALID,1000.59,VALID,0,VALID,82.934,VALID,0,VALID,23.1762,VALID,148,VALID,0.682422,
2011-09-04, 01:55:04,VALID,1000.57,VALID,0,VALID,83.3689,VALID,0,VALID,23.1566,VALID,148,VALID,0.821094,
2011-09-04, 01:56:04,VALID,1000.55,VALID,0,VALID,83.613,VALID,0,VALID,23.1176,VALID,148,VALID,0.517187,
2011-09-04, 01:57:04,VALID,1000.53,VALID,0,VALID,84.086,VALID,0,VALID,23.0786,VALID,148,VALID,0.352734,
2011-09-04, 01:58:04,VALID,1000.51,VALID,0,VALID,84.2844,VALID,0,VALID,23.0378,VALID,148,VALID,0.33125,
2011-09-04, 01:59:04,VALID,1000.48,VALID,0,VALID,84.5743,VALID,0,VALID,23.0413,VALID,148,VALID,0.489453,
2011-09-04, 02:00:04,VALID,1000.46,VALID,0,VALID,84.7651,VALID,0,VALID,23.0218,VALID,148,VALID,0.524219,
2011-09-04, 02:01:04,VALID,1000.47,VALID,0,VALID,84.8566,VALID,0,VALID,22.9811,VALID,148,VALID,0.379687,
2011-09-04, 02:02:04,VALID,1000.44,VALID,0,VALID,85.0092,VALID,0,VALID,22.9811,VALID,148,VALID,0.479688,
2011-09-04, 02:03:04,VALID,1000.43,VALID,0,VALID,85.1542,VALID,0,VALID,22.9615,VALID,148,VALID,0.642578,
2011-09-04, 02:04:04,VALID,1000.41,VALID,0,VALID,85.4975,VALID,0,VALID,22.9615,VALID,98,VALID,0.945703,
2011-09-04, 02:05:04,VALID,1000.44,VALID,0,VALID,86.3673,VALID,0,VALID,22.9615,VALID,55,VALID,1.14414,
2011-09-04, 02:06:04,VALID,1000.43,VALID,0,VALID,86.9243,VALID,0,VALID,22.903,VALID,51,VALID,1.16641,
2011-09-04, 02:07:04,VALID,1000.43,VALID,0,VALID,87.3439,VALID,0,VALID,22.8055,VALID,51,VALID,1.19805,
2011-09-04, 02:08:04,VALID,1000.42,VALID,0,VALID,88.0458,VALID,0,VALID,22.6884,VALID,51,VALID,1.04453,
2011-09-04, 02:09:04,VALID,1000.41,VALID,0,VALID,88.5875,VALID,0,VALID,22.5714,VALID,51,VALID,1.05313,
2011-09-04, 02:10:04,VALID,1000.44,VALID,0,VALID,89.2055,VALID,0,VALID,22.4933,VALID,51,VALID,1.24375,
2011-09-04, 02:11:04,VALID,1000.44,VALID,0,VALID,89.7777,VALID,0,VALID,22.4153,VALID,51,VALID,1.16406,
2011-09-04, 02:12:04,VALID,1000.43,VALID,0,VALID,90.2431,VALID,0,VALID,22.3568,VALID,51,VALID,1.08047,
2011-09-04, 02:13:04,VALID,1000.42,VALID,0,VALID,90.5026,VALID,0,VALID,22.2983,VALID,51,VALID,0.920313,
2011-09-04, 02:14:04,VALID,1000.45,VALID,0,VALID,90.6551,VALID,0,VALID,22.2397,VALID,51,VALID,0.716797,
2011-09-04, 02:15:04,VALID,1000.42,VALID,0,VALID,90.7696,VALID,0,VALID,22.1812,VALID,51,VALID,0.429688,
2011-09-04, 02:16:04,VALID,1000.43,VALID,0,VALID,90.8383,VALID,0,VALID,22.1422,VALID,51,VALID,0.446875,
2011-09-04, 02:17:04,VALID,1000.4,VALID,0,VALID,90.9603,VALID,0,VALID,22.0837,VALID,51,VALID,0.705078,
2011-09-04, 02:18:04,VALID,1000.41,VALID,0,VALID,91.1129,VALID,0,VALID,22.0837,VALID,51,VALID,0.686328,
2011-09-04, 02:19:04,VALID,1000.4,VALID,0,VALID,91.2045,VALID,0,VALID,22.0447,VALID,51,VALID,0.544531,
2011-09-04, 02:20:04,VALID,1000.39,VALID,0,VALID,91.3037,VALID,0,VALID,22.0252,VALID,51,VALID,0.448438,
2011-09-04, 02:21:04,VALID,1000.42,VALID,0,VALID,91.3723,VALID,0,VALID,21.9862,VALID,51,VALID,0.0429688,
2011-09-04, 02:22:04,VALID,1000.38,VALID,0,VALID,91.4257,VALID,0,VALID,21.9667,VALID,51,VALID,0.186328,
2011-09-04, 02:23:04,VALID,1000.41,VALID,0,VALID,91.4715,VALID,0,VALID,21.9472,VALID,51,VALID,0.223828,
2011-09-04, 02:24:04,VALID,1000.39,VALID,0,VALID,91.5249,VALID,0,VALID,21.9277,VALID,51,VALID,0.359375,
2011-09-04, 02:25:04,VALID,1000.39,VALID,0,VALID,91.6851,VALID,0,VALID,21.9862,VALID,51,VALID,0.627734,
2011-09-04, 02:26:04,VALID,1000.37,VALID,0,VALID,91.7233,VALID,0,VALID,21.9862,VALID,51,VALID,0.60625,
2011-09-04, 02:27:04,VALID,1000.36,VALID,0,VALID,91.7538,VALID,0,VALID,21.9667,VALID,51,VALID,0.581641,
2011-09-04, 02:28:04,VALID,1000.37,VALID,0,VALID,91.7767,VALID,0,VALID,21.9862,VALID,51,VALID,0.498437,
2011-09-04, 02:29:04,VALID,1000.38,VALID,0,VALID,91.8683,VALID,0,VALID,22.0057,VALID,51,VALID,0.527734,
2011-09-04, 02:30:04,VALID,1000.33,VALID,0,VALID,91.8911,VALID,0,VALID,22.0252,VALID,51,VALID,0.65,
2011-09-04, 02:31:04,VALID,1000.33,VALID,0,VALID,91.8911,VALID,0,VALID,22.0057,VALID,51,VALID,0.876562,
2011-09-04, 02:32:04,VALID,1000.35,VALID,0,VALID,91.8988,VALID,0,VALID,22.004,VALID,51,VALID,0.546875,
2011-09-04, 02:33:04,VALID,1000.36,VALID,0,VALID,91.8225,VALID,0,VALID,21.9862,VALID,31,VALID,1.05313,
2011-09-04, 02:34:04,VALID,1000.36,VALID,0,VALID,91.647,VALID,0,VALID,21.8887,VALID,31,VALID,0.836328,
2011-09-04, 02:35:04,VALID,1000.35,VALID,0,VALID,91.5249,VALID,0,VALID,21.8301,VALID,31,VALID,0.717969,
2011-09-04, 02:36:04,VALID,1000.38,VALID,0,VALID,91.5631,VALID,0,VALID,21.8106,VALID,31,VALID,0.642969,
2011-09-04, 02:37:04,VALID,1000.42,VALID,0,VALID,91.5326,VALID,0,VALID,21.7716,VALID,31,VALID,0.528516,
2011-09-04, 02:38:04,VALID,1000.39,VALID,0,VALID,91.6241,VALID,0,VALID,21.7521,VALID,31,VALID,0.551562,
2011-09-04, 02:39:04,VALID,1000.38,VALID,0,VALID,91.7691,VALID,0,VALID,21.7521,VALID,31,VALID,0.701563,
2011-09-04, 02:40:04,VALID,1000.39,VALID,0,VALID,91.9064,VALID,0,VALID,21.7716,VALID,31,VALID,0.603516,
2011-09-04, 02:41:04,VALID,1000.4,VALID,0,VALID,92.0132,VALID,0,VALID,21.8301,VALID,31,VALID,0.773438,
2011-09-04, 02:42:04,VALID,1000.37,VALID,0,VALID,92.0514,VALID,0,VALID,21.8301,VALID,31,VALID,0.777734,
2011-09-04, 02:43:04,VALID,1000.37,VALID,0,VALID,92.059,VALID,0,VALID,21.8301,VALID,31,VALID,0.867188,
2011-09-04, 02:44:04,VALID,1000.37,VALID,0,VALID,92.0666,VALID,0,VALID,21.8301,VALID,31,VALID,0.966406,
2011-09-04, 02:45:04,VALID,1000.37,VALID,0,VALID,92.0743,VALID,0,VALID,21.8496,VALID,43,VALID,0.949609,
2011-09-04, 02:46:04,VALID,1000.34,VALID,0,VALID,92.0209,VALID,0,VALID,21.8496,VALID,43,VALID,0.855078,
2011-09-04, 02:47:04,VALID,1000.34,VALID,0,VALID,92.0209,VALID,0,VALID,21.8496,VALID,43,VALID,0.860937,
2011-09-04, 02:48:04,VALID,1000.3,VALID,0,VALID,92.0361,VALID,0,VALID,21.8692,VALID,43,VALID,0.827344,
2011-09-04, 02:49:04,VALID,1000.29,VALID,0,VALID,92.0209,VALID,0,VALID,21.8692,VALID,43,VALID,0.616016,
2011-09-04, 02:50:04,VALID,1000.29,VALID,0,VALID,91.9903,VALID,0,VALID,21.8692,VALID,43,VALID,0.486328,
2011-09-04, 02:51:04,VALID,1000.3,VALID,0,VALID,91.9598,VALID,0,VALID,21.8692,VALID,43,VALID,0.527344,
2011-09-04, 02:52:04,VALID,1000.31,VALID,0,VALID,91.8835,VALID,0,VALID,21.8496,VALID,43,VALID,0.58125,
2011-09-04, 02:53:04,VALID,1000.29,VALID,0,VALID,91.8148,VALID,0,VALID,21.8301,VALID,142,VALID,1.39141,
2011-09-04, 02:54:04,VALID,1000.33,VALID,0,VALID,91.8606,VALID,0,VALID,21.887,VALID,159,VALID,1.80156,
2011-09-04, 02:55:04,VALID,1000.35,VALID,0,VALID,91.853,VALID,0,VALID,21.965,VALID,155,VALID,1.48984,
2011-09-04, 02:56:04,VALID,1000.37,VALID,0,VALID,91.7157,VALID,0,VALID,22.0235,VALID,157,VALID,1.61289,
2011-09-04, 02:57:04,VALID,1000.29,VALID,0,VALID,91.5402,VALID,0,VALID,22.1015,VALID,159,VALID,1.47578,
2011-09-04, 02:58:04,VALID,1000.31,VALID,0,VALID,91.3189,VALID,0,VALID,22.16,VALID,173,VALID,1.49766,
2011-09-04, 02:59:04,VALID,1000.33,VALID,0,VALID,90.8764,VALID,0,VALID,22.2007,VALID,173,VALID,1.79609,
2011-09-04, 03:00:04,VALID,1000.31,VALID,0,VALID,90.205,VALID,0,VALID,22.2788,VALID,174,VALID,1.49258,
2011-09-04, 03:01:04,VALID,1000.29,VALID,0,VALID,89.7396,VALID,0,VALID,22.3763,VALID,174,VALID,1.04297,
2011-09-04, 03:02:04,VALID,1000.29,VALID,0,VALID,89.4802,VALID,0,VALID,22.3941,VALID,161,VALID,0.830859,
2011-09-04, 03:03:04,VALID,1000.27,VALID,0,VALID,89.1445,VALID,0,VALID,22.4348,VALID,155,VALID,0.580859,
2011-09-04, 03:04:04,VALID,1000.26,VALID,0,VALID,88.7783,VALID,0,VALID,22.4136,VALID,155,VALID,0.851563,
2011-09-04, 03:05:04,VALID,1000.24,VALID,0,VALID,88.4502,VALID,0,VALID,22.3746,VALID,150,VALID,0.935547,
2011-09-04, 03:06:04,VALID,1000.26,VALID,0,VALID,87.8322,VALID,0,VALID,22.4365,VALID,132,VALID,1.45078,
2011-09-04, 03:07:04,VALID,1000.25,VALID,0,VALID,87.0006,VALID,0,VALID,22.5323,VALID,133,VALID,1.53789,
2011-09-04, 03:08:04,VALID,1000.2,VALID,0,VALID,85.8866,VALID,0,VALID,22.6477,VALID,138,VALID,1.41797,
2011-09-04, 03:09:04,VALID,1000.21,VALID,0,VALID,85.1084,VALID,0,VALID,22.786,VALID,138,VALID,1.23164,
2011-09-04, 03:10:04,VALID,1000.22,VALID,0,VALID,84.7117,VALID,0,VALID,22.8835,VALID,138,VALID,1.29141,
2011-09-04, 03:11:04,VALID,1000.18,VALID,0,VALID,84.2692,VALID,0,VALID,22.9208,VALID,146,VALID,1.2418,
2011-09-04, 03:12:04,VALID,1000.19,VALID,0,VALID,83.7198,VALID,0,VALID,22.9793,VALID,135,VALID,1.03281,
2011-09-04, 03:13:04,VALID,1000.16,VALID,0,VALID,83.4833,VALID,0,VALID,22.9988,VALID,135,VALID,1.05977,
2011-09-04, 03:14:04,VALID,1000.15,VALID,0,VALID,83.3231,VALID,0,VALID,23.0201,VALID,151,VALID,1.24688,
2011-09-04, 03:15:04,VALID,1000.15,VALID,0,VALID,83.1018,VALID,0,VALID,23.0201,VALID,138,VALID,1.3207,
2011-09-04, 03:16:04,VALID,1000.15,VALID,0,VALID,82.7661,VALID,0,VALID,22.9988,VALID,128,VALID,1.39336,
2011-09-04, 03:17:04,VALID,1000.13,VALID,0,VALID,82.6517,VALID,0,VALID,22.9793,VALID,123,VALID,1.55703,
2011-09-04, 03:18:04,VALID,1000.13,VALID,0,VALID,82.7432,VALID,0,VALID,22.9403,VALID,119,VALID,1.44336,
2011-09-04, 03:19:04,VALID,1000.12,VALID,0,VALID,82.5067,VALID,0,VALID,22.9403,VALID,119,VALID,1.41758,
2011-09-04, 03:20:04,VALID,1000.11,VALID,0,VALID,82.1405,VALID,0,VALID,22.9811,VALID,119,VALID,1.27852,
2011-09-04, 03:21:04,VALID,1000.15,VALID,0,VALID,82.1405,VALID,0,VALID,22.9598,VALID,119,VALID,1.21953,
2011-09-04, 03:22:04,VALID,1000.15,VALID,0,VALID,81.8353,VALID,0,VALID,23.0006,VALID,119,VALID,1.37773,
2011-09-04, 03:23:04,VALID,1000.13,VALID,0,VALID,81.7972,VALID,0,VALID,22.9598,VALID,132,VALID,1.02109,
2011-09-04, 03:24:04,VALID,1000.16,VALID,0,VALID,81.9726,VALID,0,VALID,22.9615,VALID,134,VALID,0.967969,
2011-09-04, 03:25:04,VALID,1000.15,VALID,0,VALID,81.8506,VALID,0,VALID,22.9598,VALID,134,VALID,0.898047,
2011-09-04, 03:26:04,VALID,1000.14,VALID,0,VALID,81.5835,VALID,0,VALID,22.9988,VALID,134,VALID,0.846875,
2011-09-04, 03:27:04,VALID,1000.13,VALID,0,VALID,81.5225,VALID,0,VALID,22.9793,VALID,134,VALID,0.739062,
2011-09-04, 03:28:04,VALID,1000.13,VALID,0,VALID,81.4996,VALID,0,VALID,22.9988,VALID,134,VALID,0.769141,
2011-09-04, 03:29:04,VALID,1000.1,VALID,0,VALID,81.7056,VALID,0,VALID,23.0201,VALID,134,VALID,0.630859,
2011-09-04, 03:30:04,VALID,1000.11,VALID,0,VALID,82.2855,VALID,0,VALID,23.0183,VALID,134,VALID,0.697656,
2011-09-04, 03:31:04,VALID,1000.08,VALID,0,VALID,82.2855,VALID,0,VALID,23.0378,VALID,134,VALID,0.782031,
2011-09-04, 03:32:04,VALID,1000.09,VALID,0,VALID,82.1634,VALID,0,VALID,23.0573,VALID,134,VALID,0.741406,
2011-09-04, 03:33:04,VALID,1000.07,VALID,0,VALID,81.8582,VALID,0,VALID,23.0786,VALID,134,VALID,0.814062,
2011-09-04, 03:34:04,VALID,1000.05,VALID,0,VALID,81.4996,VALID,0,VALID,23.0786,VALID,134,VALID,0.916406,
2011-09-04, 03:35:04,VALID,1000.04,VALID,0,VALID,81.0266,VALID,0,VALID,23.0981,VALID,134,VALID,0.863281,
2011-09-04, 03:36:04,VALID,1000.03,VALID,0,VALID,80.8358,VALID,0,VALID,23.1371,VALID,134,VALID,0.723437,
2011-09-04, 03:37:04,VALID,1000.05,VALID,0,VALID,80.7748,VALID,0,VALID,23.1371,VALID,134,VALID,0.65625,
2011-09-04, 03:38:04,VALID,1000.02,VALID,0,VALID,81.0342,VALID,0,VALID,23.1176,VALID,134,VALID,0.642187,
2011-09-04, 03:39:04,VALID,1000.03,VALID,0,VALID,81.1334,VALID,0,VALID,23.0981,VALID,134,VALID,0.677344,
2011-09-04, 03:40:04,VALID,1000.03,VALID,0,VALID,81.1944,VALID,0,VALID,23.0786,VALID,134,VALID,0.551172,
2011-09-04, 03:41:04,VALID,1000.03,VALID,0,VALID,81.4233,VALID,0,VALID,22.9793,VALID,134,VALID,0.579687,
2011-09-04, 03:42:04,VALID,1000.02,VALID,0,VALID,81.7056,VALID,0,VALID,22.942,VALID,134,VALID,0.575,
2011-09-04, 03:43:04,VALID,999.998,VALID,0,VALID,81.8582,VALID,0,VALID,22.8623,VALID,134,VALID,0.480469,
2011-09-04, 03:44:04,VALID,1000.03,VALID,0,VALID,82.1634,VALID,0,VALID,22.8037,VALID,134,VALID,0.319531,
2011-09-04, 03:45:04,VALID,1000.02,VALID,0,VALID,82.6974,VALID,0,VALID,22.7647,VALID,134,VALID,0.239453,
2011-09-04, 03:46:04,VALID,1000.05,VALID,0,VALID,83.2849,VALID,0,VALID,22.7257,VALID,134,VALID,0.453125,